Location: Aufkirchen
(47.9603°N, 11.3653°E)
Time: 06:30:45
(UTC+01:00)

Transit 4A - Pass Details

Date: 03 December 2020
Orbit: 864 x 980 km, 66.8° (Epoch: 25 January)

Event Time Altitude Azimuth Distance (km) Brightness Sun altitude
Rises 07:41:15 0° 217° (SW) 3,627 10.9 -1.5°
Reaches altitude 10° 07:43:46 10° 219° (SW) 2,697 10.3 -1.1°
Maximum altitude 07:50:07 79° 305° (NW) 1,000 8.1 -0.3°
Drops below altitude 10° 07:56:34 10° 33° (NNE) 2,740 10.4 0.6°
Sets 07:59:09 0° 35° (NE) 3,690 11.0 1.0°
